owner,sensor,date,latitude,longitude,vertical_datum,wind_speed,wind_to_direction,wind_speed_of_gust,qcFlag 
TCOON,ioos:station:TCOON:524:1,2015-02-01T00:00:00Z,29.8672,-93.9310,0.0,4.0,105.0,5.8,'11111222,11111222,11111222' 
TCOON,ioos:station:TCOON:524:1,2015-02-01T00:06:00Z,29.8672,-93.9310,0.0,4.1,105.0,5.4,'11111222,11111222,11111222' 
TCOON,ioos:station:TCOON:524:1,2015-02-01T00:12:00Z,29.8672,-93.9310,0.0,4.2,109.0,5.9,'11111222,11111222,11111222' 
TCOON,ioos:station:TCOON:524:1,2015-02-01T00:18:00Z,29.8672,-93.9310,0.0,4.2,109.0,5.9,'1111122,1111122,1111122' 
TCOON,ioos:station:TCOON:524:1,2015-02-01T00:24:00Z,29.8672,-93.9310,0.0,3.7,107.0,5.0,'11111222,11111222,11111222' 
TCOON,ioos:station:TCOON:524:1,2015-02-01T00:30:00Z,29.8672,-93.9310,0.0,4.3,106.0,5.7,'11111222,11111222,11111222' 
TCOON,ioos:station:TCOON:524:1,2015-02-01T00:36:00Z,29.8672,-93.9310,0.0,4.1,103.0,6.0,'11111222,11111222,11111222' 
TCOON,ioos:station:TCOON:524:1,2015-02-01T00:42:00Z,29.8672,-93.9310,0.0,4.3,102.0,6.6,'11111222,11111222,11111222' 
TCOON,ioos:station:TCOON:524:1,2015-02-01T00:48:00Z,29.8672,-93.9310,0.0,4.5,107.0,6.2,'11111222,11111222,11111222' 
TCOON,ioos:station:TCOON:524:1,2015-02-01T00:54:00Z,29.8672,-93.9310,0.0,4.8,110.0,6.7,'11111222,11111222,11111222' 
TCOON,ioos:station:TCOON:524:1,2015-02-01T01:00:00Z,29.8672,-93.9310,0.0,4.2,112.0,6.4,'11111222,11111222,11111222' 
TCOON,ioos:station:TCOON:524:1,2015-02-01T01:06:00Z,29.8672,-93.9310,0.0,4.5,110.0,6.6,'11111222,11111222,11111222' 
TCOON,ioos:station:TCOON:524:1,2015-02-01T01:12:00Z,29.8672,-93.9310,0.0,4.6,110.0,6.0,'11111222,11111222,11111222' 
TCOON,ioos:station:TCOON:524:1,2015-02-01T01:18:00Z,29.8672,-93.9310,0.0,4.6,110.0,6.0,'1111122,1111122,1111122' 
TCOON,ioos:station:TCOON:524:1,2015-02-01T01:24:00Z,29.8672,-93.9310,0.0,4.7,111.0,6.5,'11111222,11111222,11111222' 
TCOON,ioos:station:TCOON:524:1,2015-02-01T01:30:00Z,29.8672,-93.9310,0.0,5.2,109.0,6.6,'11111222,11111222,11111222' 
TCOON,ioos:station:TCOON:524:1,2015-02-01T01:36:00Z,29.8672,-93.9310,0.0,5.1,109.0,7.7,'11111222,11111222,11111222' 
TCOON,ioos:station:TCOON:524:1,2015-02-01T01:42:00Z,29.8672,-93.9310,0.0,4.8,108.0,6.9,'11111222,11111222,11111222' 
TCOON,ioos:station:TCOON:524:1,2015-02-01T01:48:00Z,29.8672,-93.9310,0.0,4.4,109.0,7.5,'11111222,11111222,11111222' 
TCOON,ioos:station:TCOON:524:1,2015-02-01T01:54:00Z,29.8672,-93.9310,0.0,4.8,108.0,7.4,'11111222,11111222,11111222' 
TCOON,ioos:station:TCOON:524:1,2015-02-01T02:00:00Z,29.8672,-93.9310,0.0,4.5,109.0,7.0,'11111222,11111222,11111222' 
TCOON,ioos:station:TCOON:524:1,2015-02-01T02:06:00Z,29.8672,-93.9310,0.0,4.3,111.0,6.7,'11111222,11111222,11111222' 
TCOON,ioos:station:TCOON:524:1,2015-02-01T02:12:00Z,29.8672,-93.9310,0.0,5.0,110.0,6.4,'11111222,11111222,11111222' 
TCOON,ioos:station:TCOON:524:1,2015-02-01T02:18:00Z,29.8672,-93.9310,0.0,5.0,110.0,6.4,'1111122,1111122,1111122' 
TCOON,ioos:station:TCOON:524:1,2015-02-01T02:24:00Z,29.8672,-93.9310,0.0,5.1,113.0,7.9,'11111222,11111222,11111222' 
TCOON,ioos:station:TCOON:524:1,2015-02-01T02:30:00Z,29.8672,-93.9310,0.0,5.3,114.0,7.1,'11111222,11111222,11111222' 
TCOON,ioos:station:TCOON:524:1,2015-02-01T02:36:00Z,29.8672,-93.9310,0.0,5.1,117.0,6.9,'11111222,11111222,11111222' 
TCOON,ioos:station:TCOON:524:1,2015-02-01T02:42:00Z,29.8672,-93.9310,0.0,5.2,111.0,7.5,'11111222,11111222,11111222' 
TCOON,ioos:station:TCOON:524:1,2015-02-01T02:48:00Z,29.8672,-93.9310,0.0,4.8,117.0,7.1,'11111222,11111222,11111222' 
TCOON,ioos:station:TCOON:524:1,2015-02-01T02:54:00Z,29.8672,-93.9310,0.0,4.4,115.0,7.5,'11111222,11111222,11111222' 
TCOON,ioos:station:TCOON:524:1,2015-02-01T03:00:00Z,29.8672,-93.9310,0.0,5.0,116.0,7.7,'11111222,11111222,11111222' 
TCOON,ioos:station:TCOON:524:1,2015-02-01T03:06:00Z,29.8672,-93.9310,0.0,5.1,116.0,7.5,'11111222,11111222,11111222' 
TCOON,ioos:station:TCOON:524:1,2015-02-01T03:12:00Z,29.8672,-93.9310,0.0,5.2,111.0,8.8,'11111222,11111222,11111222' 
TCOON,ioos:station:TCOON:524:1,2015-02-01T03:18:00Z,29.8672,-93.9310,0.0,5.2,111.0,8.8,'1111122,1111122,1111122' 
TCOON,ioos:station:TCOON:524:1,2015-02-01T03:24:00Z,29.8672,-93.9310,0.0,4.9,111.0,7.7,'11111222,11111222,11111222' 
TCOON,ioos:station:TCOON:524:1,2015-02-01T03:30:00Z,29.8672,-93.9310,0.0,4.6,108.0,6.8,'11111222,11111222,11111222' 
TCOON,ioos:station:TCOON:524:1,2015-02-01T03:36:00Z,29.8672,-93.9310,0.0,5.6,115.0,8.8,'11111222,11111222,11111222' 
TCOON,ioos:station:TCOON:524:1,2015-02-01T03:42:00Z,29.8672,-93.9310,0.0,4.7,110.0,8.3,'11111222,11111222,11111222' 
TCOON,ioos:station:TCOON:524:1,2015-02-01T03:48:00Z,29.8672,-93.9310,0.0,4.3,117.0,6.8,'11111222,11111222,11111222' 
TCOON,ioos:station:TCOON:524:1,2015-02-01T03:54:00Z,29.8672,-93.9310,0.0,4.1,120.0,6.6,'11111222,11111222,11111222' 
TCOON,ioos:station:TCOON:524:1,2015-02-01T04:00:00Z,29.8672,-93.9310,0.0,4.4,122.0,6.8,'11111222,11111222,11111222' 
TCOON,ioos:station:TCOON:524:1,2015-02-01T04:06:00Z,29.8672,-93.9310,0.0,4.8,127.0,7.3,'11111222,11111222,11111222' 
TCOON,ioos:station:TCOON:524:1,2015-02-01T04:12:00Z,29.8672,-93.9310,0.0,4.8,127.0,7.3,'1111122,1111122,1111122' 
TCOON,ioos:station:TCOON:524:1,2015-02-01T04:18:00Z,29.8672,-93.9310,0.0,4.4,126.0,7.7,'11111222,11111222,11111222' 
TCOON,ioos:station:TCOON:524:1,2015-02-01T04:24:00Z,29.8672,-93.9310,0.0,4.4,126.0,8.9,'11111222,11111222,11111222' 
TCOON,ioos:station:TCOON:524:1,2015-02-01T04:30:00Z,29.8672,-93.9310,0.0,4.2,126.0,8.1,'11111222,11111222,11111222' 
TCOON,ioos:station:TCOON:524:1,2015-02-01T04:36:00Z,29.8672,-93.9310,0.0,4.5,123.0,7.8,'11111222,11111222,11111222' 
TCOON,ioos:station:TCOON:524:1,2015-02-01T04:42:00Z,29.8672,-93.9310,0.0,4.8,123.0,7.1,'11111222,11111222,11111222' 
TCOON,ioos:station:TCOON:524:1,2015-02-01T04:48:00Z,29.8672,-93.9310,0.0,4.7,126.0,7.2,'11111222,11111222,11111222' 
TCOON,ioos:station:TCOON:524:1,2015-02-01T04:54:00Z,29.8672,-93.9310,0.0,4.0,125.0,7.5,'11111222,11111222,11111222' 
TCOON,ioos:station:TCOON:524:1,2015-02-01T05:00:00Z,29.8672,-93.9310,0.0,3.9,126.0,6.6,'11111222,11111222,11111222' 
TCOON,ioos:station:TCOON:524:1,2015-02-01T05:06:00Z,29.8672,-93.9310,0.0,4.1,124.0,6.4,'11111222,11111222,11111222' 
TCOON,ioos:station:TCOON:524:1,2015-02-01T05:12:00Z,29.8672,-93.9310,0.0,4.0,123.0,6.7,'11111222,11111222,11111222' 
TCOON,ioos:station:TCOON:524:1,2015-02-01T05:18:00Z,29.8672,-93.9310,0.0,4.0,123.0,6.7,'1111122,1111122,1111122' 
TCOON,ioos:station:TCOON:524:1,2015-02-01T05:24:00Z,29.8672,-93.9310,0.0,3.6,126.0,5.7,'11111222,11111222,11111222' 
TCOON,ioos:station:TCOON:524:1,2015-02-01T05:30:00Z,29.8672,-93.9310,0.0,4.1,129.0,5.7,'11111222,11111222,11111222' 
TCOON,ioos:station:TCOON:524:1,2015-02-01T05:36:00Z,29.8672,-93.9310,0.0,3.8,128.0,6.6,'11111222,11111222,11111222' 
TCOON,ioos:station:TCOON:524:1,2015-02-01T05:42:00Z,29.8672,-93.9310,0.0,4.3,131.0,6.6,'11111222,11111222,11111222' 
TCOON,ioos:station:TCOON:524:1,2015-02-01T05:48:00Z,29.8672,-93.9310,0.0,4.4,131.0,7.0,'11111222,11111222,11111222' 
TCOON,ioos:station:TCOON:524:1,2015-02-01T05:54:00Z,29.8672,-93.9310,0.0,4.0,128.0,6.5,'11111222,11111222,11111222' 
TCOON,ioos:station:TCOON:524:1,2015-02-01T06:00:00Z,29.8672,-93.9310,0.0,4.2,128.0,6.4,'11111222,11111222,11111222' 
TCOON,ioos:station:TCOON:524:1,2015-02-01T06:06:00Z,29.8672,-93.9310,0.0,4.4,128.0,6.7,'11111222,11111222,11111222' 
TCOON,ioos:station:TCOON:524:1,2015-02-01T06:12:00Z,29.8672,-93.9310,0.0,4.8,125.0,7.1,'11111222,11111222,11111222' 
TCOON,ioos:station:TCOON:524:1,2015-02-01T06:18:00Z,29.8672,-93.9310,0.0,4.8,125.0,7.1,'1111122,1111122,1111122' 
TCOON,ioos:station:TCOON:524:1,2015-02-01T06:24:00Z,29.8672,-93.9310,0.0,3.8,126.0,7.0,'11111222,11111222,11111222' 
TCOON,ioos:station:TCOON:524:1,2015-02-01T06:30:00Z,29.8672,-93.9310,0.0,4.4,124.0,6.9,'11111222,11111222,11111222' 
TCOON,ioos:station:TCOON:524:1,2015-02-01T06:36:00Z,29.8672,-93.9310,0.0,4.7,132.0,7.3,'11111222,11111222,11111222' 
TCOON,ioos:station:TCOON:524:1,2015-02-01T06:42:00Z,29.8672,-93.9310,0.0,4.6,130.0,7.6,'11111222,11111222,11111222' 
TCOON,ioos:station:TCOON:524:1,2015-02-01T06:48:00Z,29.8672,-93.9310,0.0,5.4,132.0,7.1,'11111222,11111222,11111222' 
TCOON,ioos:station:TCOON:524:1,2015-02-01T06:54:00Z,29.8672,-93.9310,0.0,3.9,126.0,8.0,'11111222,11111222,11111222' 
TCOON,ioos:station:TCOON:524:1,2015-02-01T07:00:00Z,29.8672,-93.9310,0.0,4.2,130.0,6.2,'11111222,11111222,11111222' 
TCOON,ioos:station:TCOON:524:1,2015-02-01T07:06:00Z,29.8672,-93.9310,0.0,4.1,130.0,6.0,'11111222,11111222,11111222' 
TCOON,ioos:station:TCOON:524:1,2015-02-01T07:12:00Z,29.8672,-93.9310,0.0,4.2,138.0,7.3,'11111222,11111222,11111222' 
TCOON,ioos:station:TCOON:524:1,2015-02-01T07:18:00Z,29.8672,-93.9310,0.0,4.2,138.0,7.3,'1111122,1111122,1111122' 
TCOON,ioos:station:TCOON:524:1,2015-02-01T07:24:00Z,29.8672,-93.9310,0.0,4.9,133.0,7.1,'11111222,11111222,11111222' 
TCOON,ioos:station:TCOON:524:1,2015-02-01T07:30:00Z,29.8672,-93.9310,0.0,3.4,129.0,6.2,'11111222,11111222,11111222' 
TCOON,ioos:station:TCOON:524:1,2015-02-01T07:36:00Z,29.8672,-93.9310,0.0,3.1,126.0,4.9,'11111222,11111222,11111222' 
TCOON,ioos:station:TCOON:524:1,2015-02-01T07:42:00Z,29.8672,-93.9310,0.0,3.3,124.0,4.7,'11111222,11111222,11111222' 
TCOON,ioos:station:TCOON:524:1,2015-02-01T07:48:00Z,29.8672,-93.9310,0.0,3.4,125.0,6.0,'11111222,11111222,11111222' 
TCOON,ioos:station:TCOON:524:1,2015-02-01T07:54:00Z,29.8672,-93.9310,0.0,4.3,129.0,6.6,'11111222,11111222,11111222' 
TCOON,ioos:station:TCOON:524:1,2015-02-01T08:00:00Z,29.8672,-93.9310,0.0,3.9,132.0,6.4,'11111222,11111222,11111222' 
TCOON,ioos:station:TCOON:524:1,2015-02-01T08:06:00Z,29.8672,-93.9310,0.0,4.2,137.0,5.8,'11111222,11111222,11111222' 
TCOON,ioos:station:TCOON:524:1,2015-02-01T08:12:00Z,29.8672,-93.9310,0.0,3.9,133.0,5.7,'11111222,11111222,11111222' 
TCOON,ioos:station:TCOON:524:1,2015-02-01T08:18:00Z,29.8672,-93.9310,0.0,3.9,133.0,5.7,'1111122,1111122,1111122' 
TCOON,ioos:station:TCOON:524:1,2015-02-01T08:24:00Z,29.8672,-93.9310,0.0,2.2,138.0,4.3,'11111222,11111222,11111222' 
TCOON,ioos:station:TCOON:524:1,2015-02-01T08:30:00Z,29.8672,-93.9310,0.0,2.7,142.0,3.9,'11111222,11111222,11111222' 
TCOON,ioos:station:TCOON:524:1,2015-02-01T08:36:00Z,29.8672,-93.9310,0.0,2.1,139.0,3.5,'11111222,11111222,11111222' 
TCOON,ioos:station:TCOON:524:1,2015-02-01T08:42:00Z,29.8672,-93.9310,0.0,2.1,136.0,3.4,'11111222,11111222,11111222' 
TCOON,ioos:station:TCOON:524:1,2015-02-01T08:48:00Z,29.8672,-93.9310,0.0,2.1,125.0,3.1,'11111222,11111222,11111222' 
TCOON,ioos:station:TCOON:524:1,2015-02-01T08:54:00Z,29.8672,-93.9310,0.0,2.2,128.0,3.6,'11111222,11111222,11111222' 
TCOON,ioos:station:TCOON:524:1,2015-02-01T09:00:00Z,29.8672,-93.9310,0.0,1.7,147.0,3.4,'11111222,11111222,11111222' 
TCOON,ioos:station:TCOON:524:1,2015-02-01T09:06:00Z,29.8672,-93.9310,0.0,1.8,153.0,3.0,'11111222,11111222,11111222' 
TCOON,ioos:station:TCOON:524:1,2015-02-01T09:12:00Z,29.8672,-93.9310,0.0,0.1,192.0,2.3,'11111222,11111222,11111222' 
TCOON,ioos:station:TCOON:524:1,2015-02-01T09:18:00Z,29.8672,-93.9310,0.0,0.1,192.0,2.3,'1111122,1111122,1111122' 
TCOON,ioos:station:TCOON:524:1,2015-02-01T09:24:00Z,29.8672,-93.9310,0.0,2.0,148.0,3.2,'11111222,11111222,11111222' 
TCOON,ioos:station:TCOON:524:1,2015-02-01T09:30:00Z,29.8672,-93.9310,0.0,1.9,146.0,2.8,'11111222,11111222,11111222' 
TCOON,ioos:station:TCOON:524:1,2015-02-01T09:36:00Z,29.8672,-93.9310,0.0,2.1,136.0,3.3,'11111222,11111222,11111222' 
TCOON,ioos:station:TCOON:524:1,2015-02-01T09:42:00Z,29.8672,-93.9310,0.0,0.0,144.0,2.4,'11111222,11111222,11111222' 
TCOON,ioos:station:TCOON:524:1,2015-02-01T09:48:00Z,29.8672,-93.9310,0.0,0.1,144.0,1.0,'11111222,11111222,11111222' 
TCOON,ioos:station:TCOON:524:1,2015-02-01T09:54:00Z,29.8672,-93.9310,0.0,0.0,158.0,0.0,'11111222,11111222,11111222' 
TCOON,ioos:station:TCOON:524:1,2015-02-01T10:00:00Z,29.8672,-93.9310,0.0,0.0,121.0,0.0,'11111222,11111222,11111222' 
TCOON,ioos:station:TCOON:524:1,2015-02-01T10:06:00Z,29.8672,-93.9310,0.0,0.0,105.0,0.0,'11111222,11111222,11111222' 
TCOON,ioos:station:TCOON:524:1,2015-02-01T10:12:00Z,29.8672,-93.9310,0.0,0.0,105.0,0.0,'1114422,1111122,1114422' 
TCOON,ioos:station:TCOON:524:1,2015-02-01T10:18:00Z,29.8672,-93.9310,0.0,0.0,96.0,0.0,'11111222,11111222,11111222' 
TCOON,ioos:station:TCOON:524:1,2015-02-01T10:24:00Z,29.8672,-93.9310,0.0,0.0,91.0,0.0,'11111222,11111222,11111222' 
TCOON,ioos:station:TCOON:524:1,2015-02-01T10:30:00Z,29.8672,-93.9310,0.0,0.0,78.0,0.0,'11111222,11111222,11111222' 
TCOON,ioos:station:TCOON:524:1,2015-02-01T10:36:00Z,29.8672,-93.9310,0.0,0.0,88.0,0.0,'11111222,11111222,11111222' 
TCOON,ioos:station:TCOON:524:1,2015-02-01T10:42:00Z,29.8672,-93.9310,0.0,1.3,111.0,1.6,'11111222,11111222,11111222' 
TCOON,ioos:station:TCOON:524:1,2015-02-01T10:48:00Z,29.8672,-93.9310,0.0,0.0,111.0,1.6,'11111222,11111222,11111222' 
TCOON,ioos:station:TCOON:524:1,2015-02-01T10:54:00Z,29.8672,-93.9310,0.0,0.2,115.0,1.2,'11111222,11111222,11111222' 
TCOON,ioos:station:TCOON:524:1,2015-02-01T11:00:00Z,29.8672,-93.9310,0.0,1.4,118.0,2.0,'11111222,11111222,11111222' 
TCOON,ioos:station:TCOON:524:1,2015-02-01T11:06:00Z,29.8672,-93.9310,0.0,0.9,111.0,1.7,'11111222,11111222,11111222' 
TCOON,ioos:station:TCOON:524:1,2015-02-01T11:12:00Z,29.8672,-93.9310,0.0,0.0,111.0,0.1,'11111222,11111222,11111222' 
TCOON,ioos:station:TCOON:524:1,2015-02-01T11:18:00Z,29.8672,-93.9310,0.0,0.0,111.0,0.1,'1114422,1111122,1111122' 
TCOON,ioos:station:TCOON:524:1,2015-02-01T11:24:00Z,29.8672,-93.9310,0.0,0.1,115.0,1.8,'11111222,11111222,11111222' 
TCOON,ioos:station:TCOON:524:1,2015-02-01T11:30:00Z,29.8672,-93.9310,0.0,1.7,113.0,2.1,'11111222,11111222,11111222' 
TCOON,ioos:station:TCOON:524:1,2015-02-01T11:36:00Z,29.8672,-93.9310,0.0,1.3,113.0,2.2,'11111222,11111222,11111222' 
TCOON,ioos:station:TCOON:524:1,2015-02-01T11:42:00Z,29.8672,-93.9310,0.0,1.2,102.0,1.8,'11111222,11111222,11111222' 
TCOON,ioos:station:TCOON:524:1,2015-02-01T11:48:00Z,29.8672,-93.9310,0.0,1.1,101.0,1.7,'11111222,11111222,11111222' 
TCOON,ioos:station:TCOON:524:1,2015-02-01T11:54:00Z,29.8672,-93.9310,0.0,1.4,111.0,2.1,'11111222,11111222,11111222' 
TCOON,ioos:station:TCOON:524:1,2015-02-01T12:00:00Z,29.8672,-93.9310,0.0,0.0,111.0,1.8,'11111222,11111222,11111222' 
TCOON,ioos:station:TCOON:524:1,2015-02-01T12:06:00Z,29.8672,-93.9310,0.0,0.0,119.0,0.0,'11111222,11111222,11111222' 
TCOON,ioos:station:TCOON:524:1,2015-02-01T12:12:00Z,29.8672,-93.9310,0.0,0.0,114.0,0.0,'11111222,11111222,11111222' 
TCOON,ioos:station:TCOON:524:1,2015-02-01T12:18:00Z,29.8672,-93.9310,0.0,0.0,114.0,0.0,'1114422,1111122,1114422' 
TCOON,ioos:station:TCOON:524:1,2015-02-01T12:24:00Z,29.8672,-93.9310,0.0,0.0,88.0,0.0,'11111222,11111222,11111222' 
TCOON,ioos:station:TCOON:524:1,2015-02-01T12:30:00Z,29.8672,-93.9310,0.0,0.0,106.0,0.0,'11111222,11111222,11111222' 
TCOON,ioos:station:TCOON:524:1,2015-02-01T12:36:00Z,29.8672,-93.9310,0.0,0.0,114.0,0.0,'11111222,11111222,11111222' 
TCOON,ioos:station:TCOON:524:1,2015-02-01T12:42:00Z,29.8672,-93.9310,0.0,0.0,99.0,0.0,'11111222,11111222,11111222' 
TCOON,ioos:station:TCOON:524:1,2015-02-01T12:48:00Z,29.8672,-93.9310,0.0,0.0,103.0,0.0,'11111222,11111222,11111222' 
TCOON,ioos:station:TCOON:524:1,2015-02-01T12:54:00Z,29.8672,-93.9310,0.0,0.0,112.0,0.0,'11111222,11111222,11111222' 
TCOON,ioos:station:TCOON:524:1,2015-02-01T13:00:00Z,29.8672,-93.9310,0.0,0.0,110.0,0.0,'11111222,11111222,11111222' 
TCOON,ioos:station:TCOON:524:1,2015-02-01T13:06:00Z,29.8672,-93.9310,0.0,0.0,117.0,0.0,'11111222,11111222,11111222' 
TCOON,ioos:station:TCOON:524:1,2015-02-01T13:12:00Z,29.8672,-93.9310,0.0,0.0,114.0,0.0,'11111222,11111222,11111222' 
TCOON,ioos:station:TCOON:524:1,2015-02-01T13:18:00Z,29.8672,-93.9310,0.0,0.0,114.0,0.0,'1114422,1111122,1114422' 
TCOON,ioos:station:TCOON:524:1,2015-02-01T13:24:00Z,29.8672,-93.9310,0.0,0.9,133.0,1.4,'11111222,11111222,11111222' 
TCOON,ioos:station:TCOON:524:1,2015-02-01T13:30:00Z,29.8672,-93.9310,0.0,1.0,130.0,1.6,'11111222,11111222,11111222' 
TCOON,ioos:station:TCOON:524:1,2015-02-01T13:36:00Z,29.8672,-93.9310,0.0,1.0,127.0,1.4,'11111222,11111222,11111222' 
TCOON,ioos:station:TCOON:524:1,2015-02-01T13:42:00Z,29.8672,-93.9310,0.0,0.0,130.0,1.1,'11111222,11111222,11111222' 
TCOON,ioos:station:TCOON:524:1,2015-02-01T13:48:00Z,29.8672,-93.9310,0.0,0.4,143.0,1.6,'11111222,11111222,11111222' 
TCOON,ioos:station:TCOON:524:1,2015-02-01T13:54:00Z,29.8672,-93.9310,0.0,0.0,150.0,1.5,'11111222,11111222,11111222' 
TCOON,ioos:station:TCOON:524:1,2015-02-01T14:00:00Z,29.8672,-93.9310,0.0,0.0,172.0,0.0,'11111222,11111222,11111222' 
TCOON,ioos:station:TCOON:524:1,2015-02-01T14:06:00Z,29.8672,-93.9310,0.0,0.7,157.0,1.7,'11111222,11111222,11111222' 
TCOON,ioos:station:TCOON:524:1,2015-02-01T14:12:00Z,29.8672,-93.9310,0.0,0.0,163.0,0.1,'11111222,11111222,11111222' 
TCOON,ioos:station:TCOON:524:1,2015-02-01T14:18:00Z,29.8672,-93.9310,0.0,0.0,163.0,0.1,'1114422,1111122,1111122' 
TCOON,ioos:station:TCOON:524:1,2015-02-01T14:24:00Z,29.8672,-93.9310,0.0,0.0,175.0,1.1,'11111222,11111222,11111222' 
TCOON,ioos:station:TCOON:524:1,2015-02-01T14:30:00Z,29.8672,-93.9310,0.0,0.3,158.0,1.5,'11111222,11111222,11111222' 
TCOON,ioos:station:TCOON:524:1,2015-02-01T14:36:00Z,29.8672,-93.9310,0.0,0.0,155.0,1.4,'11111222,11111222,11111222' 
TCOON,ioos:station:TCOON:524:1,2015-02-01T14:42:00Z,29.8672,-93.9310,0.0,0.0,212.0,0.2,'11111222,11111222,11111222' 
TCOON,ioos:station:TCOON:524:1,2015-02-01T14:48:00Z,29.8672,-93.9310,0.0,0.0,187.0,0.0,'11111222,11111222,11111222' 
TCOON,ioos:station:TCOON:524:1,2015-02-01T14:54:00Z,29.8672,-93.9310,0.0,0.0,152.0,0.0,'11111222,11111222,11111222' 
TCOON,ioos:station:TCOON:524:1,2015-02-01T15:00:00Z,29.8672,-93.9310,0.0,0.0,156.0,0.0,'11111222,11111222,11111222' 
TCOON,ioos:station:TCOON:524:1,2015-02-01T15:06:00Z,29.8672,-93.9310,0.0,0.1,155.0,1.0,'11111222,11111222,11111222' 
TCOON,ioos:station:TCOON:524:1,2015-02-01T15:12:00Z,29.8672,-93.9310,0.0,0.1,155.0,1.0,'1111122,1111122,1111122' 
TCOON,ioos:station:TCOON:524:1,2015-02-01T15:18:00Z,29.8672,-93.9310,0.0,0.9,203.0,2.3,'11111222,11111222,11111222' 
TCOON,ioos:station:TCOON:524:1,2015-02-01T15:24:00Z,29.8672,-93.9310,0.0,2.9,205.0,4.0,'11111222,11111222,11111222' 
TCOON,ioos:station:TCOON:524:1,2015-02-01T15:30:00Z,29.8672,-93.9310,0.0,2.9,206.0,4.5,'11111222,11111222,11111222' 
TCOON,ioos:station:TCOON:524:1,2015-02-01T15:36:00Z,29.8672,-93.9310,0.0,3.6,198.0,5.6,'11111222,11111222,11111222' 
TCOON,ioos:station:TCOON:524:1,2015-02-01T15:42:00Z,29.8672,-93.9310,0.0,3.6,207.0,5.6,'11111222,11111222,11111222' 
TCOON,ioos:station:TCOON:524:1,2015-02-01T15:48:00Z,29.8672,-93.9310,0.0,3.8,214.0,5.5,'11111222,11111222,11111222' 
TCOON,ioos:station:TCOON:524:1,2015-02-01T15:54:00Z,29.8672,-93.9310,0.0,4.1,206.0,5.3,'11111222,11111222,11111222' 
TCOON,ioos:station:TCOON:524:1,2015-02-01T16:00:00Z,29.8672,-93.9310,0.0,4.4,208.0,5.7,'11111222,11111222,11111222' 
TCOON,ioos:station:TCOON:524:1,2015-02-01T16:06:00Z,29.8672,-93.9310,0.0,5.2,214.0,6.6,'11111222,11111222,11111222' 
TCOON,ioos:station:TCOON:524:1,2015-02-01T16:12:00Z,29.8672,-93.9310,0.0,4.1,207.0,6.7,'11111222,11111222,11111222' 
TCOON,ioos:station:TCOON:524:1,2015-02-01T16:18:00Z,29.8672,-93.9310,0.0,4.1,207.0,6.7,'1111122,1111122,1111122' 
TCOON,ioos:station:TCOON:524:1,2015-02-01T16:24:00Z,29.8672,-93.9310,0.0,5.3,215.0,6.7,'11111222,11111222,11111222' 
TCOON,ioos:station:TCOON:524:1,2015-02-01T16:30:00Z,29.8672,-93.9310,0.0,4.9,221.0,6.1,'11111222,11111222,11111222' 
TCOON,ioos:station:TCOON:524:1,2015-02-01T16:36:00Z,29.8672,-93.9310,0.0,4.8,216.0,6.0,'11111222,11111222,11111222' 
TCOON,ioos:station:TCOON:524:1,2015-02-01T16:42:00Z,29.8672,-93.9310,0.0,5.1,209.0,6.7,'11111222,11111222,11111222' 
TCOON,ioos:station:TCOON:524:1,2015-02-01T16:48:00Z,29.8672,-93.9310,0.0,4.4,215.0,6.6,'11111222,11111222,11111222' 
TCOON,ioos:station:TCOON:524:1,2015-02-01T16:54:00Z,29.8672,-93.9310,0.0,5.2,200.0,6.8,'11111222,11111222,11111222' 
TCOON,ioos:station:TCOON:524:1,2015-02-01T17:00:00Z,29.8672,-93.9310,0.0,5.4,204.0,7.0,'11111222,11111222,11111222' 
TCOON,ioos:station:TCOON:524:1,2015-02-01T17:06:00Z,29.8672,-93.9310,0.0,6.1,214.0,8.6,'11111222,11111222,11111222' 
TCOON,ioos:station:TCOON:524:1,2015-02-01T17:12:00Z,29.8672,-93.9310,0.0,6.2,218.0,7.3,'11111222,11111222,11111222' 
TCOON,ioos:station:TCOON:524:1,2015-02-01T17:18:00Z,29.8672,-93.9310,0.0,6.2,218.0,7.3,'1111122,1111122,1111122' 
TCOON,ioos:station:TCOON:524:1,2015-02-01T17:24:00Z,29.8672,-93.9310,0.0,6.9,210.0,9.2,'11111222,11111222,11111222' 
TCOON,ioos:station:TCOON:524:1,2015-02-01T17:30:00Z,29.8672,-93.9310,0.0,6.5,220.0,8.1,'11111222,11111222,11111222' 
TCOON,ioos:station:TCOON:524:1,2015-02-01T17:36:00Z,29.8672,-93.9310,0.0,7.0,212.0,8.2,'11111222,11111222,11111222' 
TCOON,ioos:station:TCOON:524:1,2015-02-01T17:42:00Z,29.8672,-93.9310,0.0,8.1,215.0,9.7,'11111222,11111222,11111222' 
TCOON,ioos:station:TCOON:524:1,2015-02-01T17:48:00Z,29.8672,-93.9310,0.0,6.0,205.0,9.5,'11111222,11111222,11111222' 
TCOON,ioos:station:TCOON:524:1,2015-02-01T17:54:00Z,29.8672,-93.9310,0.0,7.2,205.0,10.0,'11111222,11111222,11111222' 
TCOON,ioos:station:TCOON:524:1,2015-02-01T18:00:00Z,29.8672,-93.9310,0.0,7.5,220.0,9.7,'11111222,11111222,11111222' 
TCOON,ioos:station:TCOON:524:1,2015-02-01T18:06:00Z,29.8672,-93.9310,0.0,6.6,211.0,10.7,'11111222,11111222,11111222' 
TCOON,ioos:station:TCOON:524:1,2015-02-01T18:12:00Z,29.8672,-93.9310,0.0,6.5,218.0,9.6,'11111222,11111222,11111222' 
TCOON,ioos:station:TCOON:524:1,2015-02-01T18:18:00Z,29.8672,-93.9310,0.0,6.5,218.0,9.6,'1111122,1111122,1111122' 
TCOON,ioos:station:TCOON:524:1,2015-02-01T18:24:00Z,29.8672,-93.9310,0.0,7.9,205.0,10.1,'11111222,11111222,11111222' 
TCOON,ioos:station:TCOON:524:1,2015-02-01T18:30:00Z,29.8672,-93.9310,0.0,6.8,215.0,10.1,'11111222,11111222,11111222' 
TCOON,ioos:station:TCOON:524:1,2015-02-01T18:36:00Z,29.8672,-93.9310,0.0,7.4,211.0,9.2,'11111222,11111222,11111222' 
TCOON,ioos:station:TCOON:524:1,2015-02-01T18:42:00Z,29.8672,-93.9310,0.0,6.5,221.0,8.7,'11111222,11111222,11111222' 
TCOON,ioos:station:TCOON:524:1,2015-02-01T18:48:00Z,29.8672,-93.9310,0.0,6.5,218.0,8.5,'11111222,11111222,11111222' 
TCOON,ioos:station:TCOON:524:1,2015-02-01T18:54:00Z,29.8672,-93.9310,0.0,6.2,216.0,7.9,'11111222,11111222,11111222' 
TCOON,ioos:station:TCOON:524:1,2015-02-01T19:00:00Z,29.8672,-93.9310,0.0,6.9,228.0,9.1,'11111222,11111222,11111222' 
TCOON,ioos:station:TCOON:524:1,2015-02-01T19:06:00Z,29.8672,-93.9310,0.0,7.5,221.0,8.8,'11111222,11111222,11111222' 
TCOON,ioos:station:TCOON:524:1,2015-02-01T19:12:00Z,29.8672,-93.9310,0.0,8.1,222.0,10.7,'11111222,11111222,11111222' 
TCOON,ioos:station:TCOON:524:1,2015-02-01T19:18:00Z,29.8672,-93.9310,0.0,8.1,222.0,10.7,'1111122,1111122,1111122' 
TCOON,ioos:station:TCOON:524:1,2015-02-01T19:24:00Z,29.8672,-93.9310,0.0,7.3,218.0,10.4,'11111222,11111222,11111222' 
TCOON,ioos:station:TCOON:524:1,2015-02-01T19:30:00Z,29.8672,-93.9310,0.0,8.4,219.0,9.9,'11111222,11111222,11111222' 
TCOON,ioos:station:TCOON:524:1,2015-02-01T19:36:00Z,29.8672,-93.9310,0.0,8.2,219.0,10.6,'11111222,11111222,11111222' 
TCOON,ioos:station:TCOON:524:1,2015-02-01T19:42:00Z,29.8672,-93.9310,0.0,8.4,219.0,10.9,'11111222,11111222,11111222' 
TCOON,ioos:station:TCOON:524:1,2015-02-01T19:48:00Z,29.8672,-93.9310,0.0,7.6,210.0,9.8,'11111222,11111222,11111222' 
TCOON,ioos:station:TCOON:524:1,2015-02-01T19:54:00Z,29.8672,-93.9310,0.0,9.1,210.0,11.5,'11111222,11111222,11111222' 
TCOON,ioos:station:TCOON:524:1,2015-02-01T20:00:00Z,29.8672,-93.9310,0.0,8.2,214.0,11.0,'11111222,11111222,11111222' 
TCOON,ioos:station:TCOON:524:1,2015-02-01T20:06:00Z,29.8672,-93.9310,0.0,7.9,216.0,11.4,'11111222,11111222,11111222' 
TCOON,ioos:station:TCOON:524:1,2015-02-01T20:12:00Z,29.8672,-93.9310,0.0,8.5,215.0,10.2,'11111222,11111222,11111222' 
TCOON,ioos:station:TCOON:524:1,2015-02-01T20:18:00Z,29.8672,-93.9310,0.0,8.5,215.0,10.2,'1111122,1111122,1111122' 